K0CVS Weather Reports


time (UTC)temp
C
wind
direction
speed
KPH
gust
KPH
rain 1hr
cm
rain 24hr
cm
rain mn
cm
humidity
%
barometer
mb
20260507170121 17 7 4.8 9.7 0.00 0.05 0.05 53 1015.7
20260507165616 17 181 1.6 3.2 0.00 0.05 0.05 51 1015.8
20260507165113 16 194 3.2 9.7 0.00 0.05 0.05 52 1015.8
20260507164609 16 182 1.6 6.4 0.00 0.05 0.05 52 1016.0
20260507164106 16 143 1.6 4.8 0.00 0.05 0.05 51 1016.0
20260507163604 16 224 1.6 1.6 0.00 0.05 0.05 54 1015.9
20260507163102 16 197 4.8 6.4 0.00 0.05 0.05 53 1016.2
20260507162601 16 281 1.6 12.9 0.00 0.05 0.05 52 1015.9
20260507162059 15 20 3.2 4.8 0.00 0.05 0.05 53 1016.1
20260507161555 16 228 0.0 6.4 0.00 0.05 0.05 54 1016.1
20260507161052 16 284 1.6 1.6 0.00 0.05 0.05 53 1016.2
20260507160548 16 250 1.6 6.4 0.00 0.05 0.05 52 1016.2
20260507160044 16 169 0.0 3.2 0.00 0.05 0.05 53 1016.1
20260507155540 16 319 4.8 6.4 0.00 0.05 0.05 52 1016.2
20260507155037 16 283 1.6 6.4 0.00 0.05 0.05 53 1016.2
20260507154534 15 116 0.0 3.2 0.00 0.05 0.05 56 1016.3
20260507154031 15 219 1.6 6.4 0.00 0.05 0.05 54 1016.4
20260507153528 15 290 3.2 4.8 0.00 0.05 0.05 55 1016.2
20260507153024 15 201 0.0 11.3 0.00 0.05 0.05 55 1016.4
20260507152520 15 166 3.2 6.4 0.00 0.05 0.05 57 1016.2
20260507152017 15 292 1.6 6.4 0.00 0.05 0.05 57 1016.5
20260507151513 14 111 1.6 6.4 0.00 0.05 0.05 58 1016.5
20260507151010 14 72 0.0 3.2 0.00 0.05 0.05 59 1016.5
20260507150507 14 358 1.6 1.6 0.00 0.05 0.05 61 1016.7
20260507150003 14 21 1.6 4.8 0.00 0.05 0.05 60 1016.9
20260507145458 13 63 3.2 3.2 0.00 0.05 0.05 60 1016.7
20260507144956 13 347 3.2 4.8 0.00 0.05 0.05 61 1016.9
20260507144452 13 161 1.6 3.2 0.00 0.05 0.05 60 1017.0
20260507143949 13 215 3.2 6.4 0.00 0.05 0.05 60 1016.9
20260507143447 13 244 3.2 4.8 0.00 0.05 0.05 61 1016.8
20260507142943 13 309 0.0 3.2 0.13 0.05 0.05 61 1016.8
20260507142439 13 175 0.0 3.2 0.13 0.05 0.05 61 1016.8
20260507141937 13 213 0.0 1.6 0.00 0.03 0.03 62 1016.8
20260507141432 12 269 0.0 1.6 0.00 0.03 0.03 63 1016.8
20260507140930 12 230 0.0 1.6 0.00 0.03 0.03 62 1017.0
20260507140426 12 333 3.2 3.2 0.00 0.03 0.03 62 1016.9
20260507135924 12 237 0.0 1.6 0.00 0.03 0.03 64 1017.1
20260507135420 12 193 0.0 3.2 0.00 0.03 0.03 64 1017.0
20260507134918 12 116 0.0 1.6 0.00 0.03 0.03 65 1017.1
20260507134414 12 232 0.0 3.2 0.00 0.03 0.03 65 1017.0
20260507133910 12 212 0.0 3.2 0.00 0.03 0.03 65 1017.1
20260507133406 12 209 0.0 1.6 0.00 0.03 0.03 65 1017.2
20260507132905 11 177 0.0 0.0 0.00 0.03 0.03 67 1016.9
20260507132401 11 256 1.6 1.6 0.00 0.03 0.03 66 1016.9
20260507131858 11 207 0.0 3.2 0.00 0.03 0.03 66 1017.1
20260507131355 11 213 0.0 0.0 0.00 0.03 0.03 68 1017.2
20260507130851 11 137 0.0 1.6 0.00 0.03 0.03 68 1017.2
20260507130349 10 230 0.0 1.6 0.00 0.03 0.03 69 1017.4
20260507125848 10 186 0.0 1.6 0.00 0.03 0.03 70 1017.4
20260507125344 10 119 0.0 1.6 0.00 0.03 0.03 70 1017.5
20260507124842 10 213 0.0 1.6 0.00 0.03 0.03 70 1017.3
20260507124338 9 218 0.0 0.0 0.00 0.03 0.03 70 1017.2
20260507123837 9 205 0.0 0.0 0.00 0.03 0.03 71 1017.2
20260507123334 8 221 0.0 0.0 0.00 0.03 0.03 71 1017.2
20260507122830 8 206 0.0 0.0 0.00 0.03 0.03 72 1017.4
20260507122325 8 212 0.0 0.0 0.00 0.03 0.03 72 1017.4
20260507121823 8 194 0.0 1.6 0.00 0.03 0.03 72 1017.3
20260507121317 8 204 1.6 1.6 0.00 0.03 0.03 72 1017.4
20260507120814 7 222 0.0 3.2 0.00 0.03 0.03 72 1017.3
20260507120310 7 220 0.0 0.0 0.00 0.03 0.03 72 1017.3
20260507115807 7 212 0.0 0.0 0.00 0.03 0.03 72 1017.3
20260507115306 7 218 0.0 0.0 0.00 0.03 0.03 71 1017.1
20260507114758 7 194 0.0 0.0 0.00 0.03 0.03 71 1017.1
20260507114256 7 198 0.0 0.0 0.00 0.03 0.03 71 1017.0
20260507113753 7 212 0.0 0.0 0.00 0.03 0.03 71 1017.1
20260507113250 7 200 0.0 0.0 0.00 0.03 0.03 70 1017.1
20260507112748 7 221 0.0 0.0 0.00 0.03 0.03 70 1017.1
20260507112244 7 231 0.0 0.0 0.00 0.03 0.03 69 1017.1
20260507111742 7 217 0.0 0.0 0.00 0.03 0.03 69 1017.1
20260507111238 7 216 0.0 0.0 0.00 0.03 0.03 68 1017.0
20260507110734 7 224 0.0 0.0 0.00 0.03 0.03 68 1016.9
20260507110231 7 215 0.0 0.0 0.00 0.03 0.03 68 1017.1
20260507105728 7 182 1.6 1.6 0.00 0.03 0.03 68 1017.1
20260507105224 7 211 0.0 0.0 0.00 0.03 0.03 68 1017.0
20260507104722 7 218 0.0 0.0 0.00 0.03 0.03 68 1017.1
20260507104218 7 217 0.0 0.0 0.00 0.03 0.03 68 1016.9
20260507103714 7 219 0.0 0.0 0.00 0.03 0.03 67 1017.0
20260507103211 7 230 0.0 0.0 0.00 0.03 0.03 67 1017.1
20260507102707 7 218 0.0 0.0 0.00 0.03 0.03 67 1017.0
20260507102204 7 210 0.0 0.0 0.00 0.03 0.03 67 1016.9
20260507101700 7 219 0.0 0.0 0.00 0.03 0.03 68 1017.2
20260507101155 7 215 0.0 0.0 0.00 0.03 0.03 68 1016.9
20260507100653 7 214 0.0 0.0 0.00 0.03 0.03 67 1017.2
20260507100151 7 222 0.0 0.0 0.00 0.03 0.03 68 1017.0
20260507095649 7 217 0.0 0.0 0.00 0.03 0.03 68 1017.0
20260507095145 7 223 0.0 0.0 0.00 0.03 0.03 67 1017.0
20260507094641 6 239 0.0 0.0 0.00 0.03 0.03 68 1017.1
20260507094138 6 226 0.0 0.0 0.00 0.03 0.03 69 1017.3
20260507093636 6 214 0.0 0.0 0.00 0.03 0.03 69 1017.3
20260507093134 6 222 0.0 0.0 0.00 0.03 0.03 69 1017.3
20260507092631 6 231 0.0 0.0 0.00 0.03 0.03 70 1017.3
20260507092127 6 223 0.0 0.0 0.00 0.03 0.03 69 1017.2
20260507091624 7 228 0.0 0.0 0.00 0.03 0.03 70 1017.4
20260507091120 7 216 0.0 0.0 0.00 0.03 0.03 69 1017.3
20260507090616 7 213 0.0 0.0 0.00 0.03 0.03 68 1017.4
20260507090113 7 214 0.0 0.0 0.00 0.03 0.03 68 1017.4
20260507085610 7 203 0.0 0.0 0.00 0.03 0.03 69 1017.3
20260507085107 6 217 0.0 0.0 0.00 0.03 0.03 69 1017.5
20260507084603 6 222 0.0 0.0 0.00 0.03 0.03 70 1017.5
20260507084101 6 224 0.0 0.0 0.00 0.03 0.03 71 1017.3
20260507083556 6 224 0.0 0.0 0.00 0.03 0.03 71 1017.5
20260507083054 6 224 0.0 0.0 0.00 0.03 0.03 72 1017.5
20260507082549 6 223 0.0 0.0 0.00 0.03 0.03 72 1017.3
20260507082046 6 222 0.0 0.0 0.00 0.03 0.03 71 1017.5
20260507081542 6 224 0.0 0.0 0.00 0.03 0.03 70 1017.5
20260507081040 6 224 0.0 0.0 0.00 0.03 0.03 71 1017.4
20260507080535 6 224 0.0 0.0 0.00 0.03 0.03 72 1017.5
20260507080032 6 226 0.0 0.0 0.00 0.03 0.03 71 1017.4
20260507075527 6 227 0.0 0.0 0.00 0.03 0.03 72 1017.3
20260507075024 6 223 0.0 0.0 0.00 0.03 0.03 72 1017.3
20260507074521 7 224 0.0 0.0 0.00 0.03 0.03 72 1017.4
20260507074020 7 228 0.0 0.0 0.00 0.03 0.03 71 1017.5
20260507073515 7 229 0.0 0.0 0.00 0.03 0.03 72 1017.5
20260507073012 7 229 0.0 0.0 0.00 0.03 0.03 70 1017.5
20260507072509 7 227 0.0 0.0 0.00 0.03 0.03 69 1017.5
20260507072006 7 225 0.0 0.0 0.00 0.03 0.03 69 1017.5
20260507071504 7 220 0.0 0.0 0.00 0.03 0.03 67 1017.6
20260507071000 7 222 0.0 0.0 0.00 0.03 0.03 66 1017.8
20260507070457 8 225 0.0 0.0 0.18 0.03 0.03 65 1017.9
20260507065954 8 225 0.0 0.0 0.18 0.03 0.03 64 1017.8
20260507065451 8 225 0.0 0.0 0.00 0.00 0.00 63 1017.8
20260507064948 8 223 0.0 0.0 0.00 0.00 0.00 63 1018.0
20260507064446 8 228 0.0 0.0 0.00 0.00 0.00 61 1017.9
20260507063943 8 228 0.0 0.0 0.00 0.00 0.00 61 1017.9
20260507063440 8 226 0.0 0.0 0.00 0.00 0.00 60 1018.1
20260507062937 8 230 0.0 0.0 0.00 0.00 0.00 60 1018.0
20260507062435 8 232 0.0 0.0 0.00 0.00 0.00 60 1018.2
20260507061932 8 217 0.0 0.0 0.00 0.00 0.00 61 1017.9
20260507061430 8 217 0.0 0.0 0.00 0.00 0.00 61 1018.0
20260507060928 8 216 0.0 0.0 0.00 0.00 0.00 61 1017.9
20260507060424 8 215 0.0 0.0 0.00 0.00 0.00 60 1018.0
20260507055921 8 227 0.0 0.0 0.00 0.00 0.00 61 1018.1
20260507055417 8 227 0.0 0.0 0.00 0.00 0.00 60 1017.9
20260507054914 8 221 0.0 0.0 0.00 0.00 0.00 60 1018.0
20260507054409 8 225 0.0 0.0 0.00 0.00 0.00 60 1018.1
20260507053907 8 225 0.0 0.0 0.00 0.00 0.00 59 1018.2
20260507053405 8 219 0.0 0.0 0.00 0.00 0.00 59 1018.1
20260507052903 8 225 0.0 0.0 0.00 0.00 0.00 59 1018.1
20260507052400 8 227 0.0 0.0 0.00 0.00 0.00 59 1018.2
20260507051857 8 229 0.0 0.0 0.00 0.00 0.00 59 1018.2
20260507051355 8 232 0.0 0.0 0.00 0.00 0.00 59 1018.0
20260507050851 8 233 0.0 0.0 0.00 0.00 0.00 59 1018.1
20260507050348 8 225 0.0 0.0 0.00 0.00 0.00 59 1018.1
20260507045845 8 229 0.0 0.0 0.00 0.15 0.15 59 1018.1
20260507045341 8 230 0.0 0.0 0.00 0.15 0.15 59 1018.2
20260507044838 8 231 0.0 0.0 0.00 0.15 0.15 58 1018.3
20260507044335 8 234 0.0 0.0 0.00 0.15 0.15 58 1018.1
20260507043831 8 232 0.0 0.0 0.00 0.15 0.15 58 1018.2
20260507043327 8 232 0.0 0.0 0.00 0.15 0.15 59 1018.1
20260507042824 8 230 0.0 0.0 0.00 0.15 0.15 59 1018.1
20260507042320 8 230 0.0 0.0 0.00 0.15 0.15 60 1018.0
20260507041817 8 229 0.0 0.0 0.00 0.15 0.15 61 1018.1
20260507041313 8 224 0.0 0.0 0.00 0.15 0.15 60 1018.0
20260507040811 8 219 0.0 0.0 0.00 0.15 0.15 61 1018.3
20260507040307 8 215 0.0 0.0 0.00 0.15 0.15 61 1018.2
20260507035802 8 218 0.0 0.0 0.00 0.15 0.15 62 1018.2
20260507035258 8 229 0.0 0.0 0.00 0.15 0.15 61 1018.6
20260507034756 8 229 0.0 0.0 0.00 0.15 0.15 61 1018.4
20260507034252 8 230 0.0 0.0 0.00 0.15 0.15 61 1018.3
20260507033751 8 230 0.0 0.0 0.00 0.15 0.15 61 1018.3
20260507033248 8 228 0.0 0.0 0.00 0.15 0.15 61 1018.3
20260507032745 8 224 0.0 0.0 0.00 0.15 0.15 61 1018.2
20260507032241 8 224 0.0 0.0 0.00 0.15 0.15 61 1018.2
20260507031738 8 228 0.0 0.0 0.00 0.15 0.15 60 1018.0
20260507031235 8 226 0.0 0.0 0.00 0.15 0.15 59 1018.2
20260507030731 8 225 0.0 0.0 0.00 0.15 0.15 59 1018.3
20260507030229 8 225 0.0 0.0 0.00 0.15 0.15 58 1018.2
20260507025726 9 225 0.0 0.0 0.00 0.15 0.15 57 1018.3
20260507025223 9 225 0.0 0.0 0.00 0.15 0.15 56 1018.4
20260507024721 9 225 0.0 0.0 0.00 0.15 0.15 56 1018.2
20260507024218 9 224 0.0 0.0 0.00 0.15 0.15 55 1018.0
20260507023713 10 224 0.0 0.0 0.00 0.15 0.15 55 1018.2
20260507023211 10 220 0.0 0.0 0.00 0.15 0.15 54 1018.1
20260507022708 10 220 0.0 0.0 0.00 0.15 0.15 53 1018.0
20260507022204 10 219 0.0 0.0 0.00 0.15 0.15 53 1018.0
20260507021700 10 219 0.0 0.0 0.00 0.15 0.15 52 1017.8
20260507021155 10 219 0.0 0.0 0.00 0.15 0.15 51 1017.9
20260507020654 10 215 0.0 0.0 0.00 0.15 0.15 50 1017.6
20260507020150 10 215 0.0 0.0 0.00 0.15 0.15 49 1017.8
20260507015648 11 218 0.0 0.0 0.00 0.15 0.15 48 1017.6
20260507015145 11 219 0.0 0.0 0.00 0.15 0.15 47 1017.7
20260507014642 11 217 0.0 0.0 0.00 0.15 0.15 46 1017.7
20260507014138 11 217 0.0 0.0 0.00 0.15 0.15 45 1017.7
20260507013635 11 215 0.0 0.0 0.00 0.15 0.15 46 1017.6
20260507013132 11 223 0.0 0.0 0.00 0.15 0.15 45 1017.7
20260507012629 11 229 0.0 0.0 0.00 0.15 0.15 43 1017.6
20260507012124 12 233 0.0 0.0 0.00 0.15 0.15 41 1017.5
20260507011623 12 230 0.0 0.0 0.00 0.15 0.15 40 1017.5
20260507011119 12 238 0.0 0.0 0.00 0.15 0.15 41 1017.4
20260507010614 12 226 0.0 0.0 0.00 0.15 0.15 41 1017.4
20260507010110 12 231 0.0 0.0 0.00 0.15 0.15 44 1017.5
20260507005608 12 235 0.0 0.0 0.00 0.15 0.15 43 1017.4
20260507005103 12 232 0.0 0.0 0.00 0.15 0.15 43 1017.4
20260507004601 13 230 0.0 0.0 0.00 0.15 0.15 42 1017.3
20260507004058 13 35 1.6 1.6 0.00 0.15 0.15 39 1017.5
20260507003554 13 274 0.0 0.0 0.18 0.15 0.15 42 1017.3
20260507003049 14 251 1.6 1.6 0.18 0.15 0.15 35 1017.4
20260507002546 14 13 1.6 1.6 0.00 0.13 0.13 34 1017.3
20260507002042 14 205 0.0 0.0 0.00 0.13 0.13 34 1017.3
20260507001539 14 328 1.6 3.2 0.00 0.13 0.13 34 1017.5
20260507001036 14 215 0.0 3.2 0.00 0.13 0.13 34 1017.4
20260507000532 14 337 0.0 3.2 0.00 0.13 0.13 34 1017.3
20260507000028 15 244 0.0 4.8 0.00 0.13 0.13 33 1017.3
20260506235526 15 8 1.6 1.6 0.00 0.13 0.13 34 1017.2
20260506235021 15 213 0.0 1.6 0.00 0.13 0.13 33 1017.4
20260506234519 15 256 0.0 0.0 0.00 0.13 0.13 33 1017.4
20260506234016 15 81 0.0 3.2 0.00 0.13 0.13 34 1017.3
20260506233512 15 234 0.0 1.6 0.00 0.13 0.13 33 1017.4
20260506233009 15 267 0.0 1.6 0.00 0.13 0.13 32 1017.6
20260506232505 15 234 0.0 1.6 0.00 0.13 0.13 33 1017.3
20260506232001 15 185 0.0 1.6 0.00 0.13 0.13 34 1017.4
20260506231459 15 340 1.6 3.2 0.00 0.13 0.13 34 1017.2
20260506230956 15 4 1.6 3.2 0.00 0.13 0.13 33 1017.5
20260506230452 15 31 6.4 9.7 0.00 0.13 0.13 32 1017.4
20260506225949 15 134 6.4 6.4 0.00 0.13 0.13 33 1017.3
20260506225446 15 259 0.0 3.2 0.00 0.13 0.13 34 1017.4
20260506224943 15 222 0.0 4.8 0.00 0.13 0.13 33 1017.3
20260506224440 15 246 0.0 1.6 0.00 0.13 0.13 33 1017.6
20260506223936 15 253 0.0 1.6 0.00 0.13 0.13 33 1017.4
20260506223432 15 316 3.2 6.4 0.00 0.13 0.13 32 1017.4
20260506222930 15 323 4.8 6.4 0.00 0.13 0.13 32 1017.6
20260506222426 15 275 1.6 3.2 0.00 0.13 0.13 32 1017.3
20260506221923 15 346 1.6 3.2 0.00 0.13 0.13 34 1017.5
20260506221420 15 145 1.6 3.2 0.00 0.13 0.13 34 1017.3
20260506220918 15 216 0.0 3.2 0.00 0.13 0.13 32 1017.4
20260506220413 15 223 0.0 6.4 0.00 0.13 0.13 33 1017.6
20260506215910 15 219 1.6 3.2 0.00 0.13 0.13 33 1017.5
20260506215406 15 317 1.6 3.2 0.00 0.13 0.13 32 1017.7
20260506214902 15 349 3.2 6.4 0.00 0.13 0.13 32 1017.8
20260506214359 16 332 1.6 4.8 0.00 0.13 0.13 33 1017.7
20260506213857 16 275 0.0 3.2 0.00 0.13 0.13 32 1017.7
20260506213354 16 350 3.2 3.2 0.00 0.13 0.13 33 1017.7
20260506212851 15 323 3.2 6.4 0.00 0.13 0.13 34 1017.8
20260506212347 15 265 1.6 4.8 0.00 0.13 0.13 33 1017.8
20260506211842 15 263 1.6 4.8 0.00 0.13 0.13 32 1017.8
20260506211338 15 230 0.0 3.2 0.00 0.13 0.13 32 1018.0
20260506210835 15 241 0.0 3.2 0.00 0.13 0.13 32 1017.9
20260506210332 15 11 4.8 6.4 0.00 0.13 0.13 35 1017.8
20260506205830 15 247 0.0 4.8 0.00 0.13 0.13 34 1018.1
20260506205325 15 305 1.6 4.8 0.00 0.13 0.13 33 1018.3
20260506204817 15 346 4.8 6.4 0.00 0.13 0.13 33 1018.2
20260506204315 15 236 1.6 3.2 0.00 0.13 0.13 34 1018.4
20260506203812 15 315 3.2 3.2 0.00 0.13 0.13 32 1018.6
20260506203309 15 45 3.2 3.2 0.13 0.13 0.13 34 1018.6
20260506202806 16 321 4.8 6.4 0.13 0.13 0.13 34 1018.7
20260506202306 15 221 1.6 3.2 0.00 0.10 0.10 32 1018.7
20260506201759 15 248 3.2 4.8 0.00 0.10 0.10 33 1018.6
20260506201257 15 266 1.6 4.8 0.00 0.10 0.10 33 1018.7
20260506200754 15 289 0.0 1.6 0.00 0.10 0.10 34 1018.5
20260506200249 15 15 3.2 3.2 0.00 0.10 0.10 34 1018.9
20260506195746 15 209 1.6 4.8 0.00 0.10 0.10 30 1018.8
20260506195242 15 336 4.8 4.8 0.00 0.10 0.10 33 1019.0
20260506194740 15 202 1.6 3.2 0.00 0.10 0.10 33 1018.9
20260506194236 15 270 0.0 3.2 0.00 0.10 0.10 33 1018.7
20260506193734 15 271 1.6 4.8 0.00 0.10 0.10 35 1018.9
20260506193231 15 255 1.6 6.4 0.00 0.10 0.10 33 1019.0
20260506192727 15 272 1.6 4.8 0.00 0.10 0.10 33 1018.9
20260506192224 15 301 3.2 3.2 0.00 0.10 0.10 33 1018.9
20260506191721 15 258 0.0 4.8 0.00 0.10 0.10 31 1019.1
20260506191217 15 6 3.2 4.8 0.00 0.10 0.10 32 1019.0
20260506190715 15 223 4.8 9.7 0.00 0.10 0.10 32 1019.0
20260506190211 15 223 0.0 11.3 0.00 0.10 0.10 34 1019.0
20260506185708 15 6 3.2 4.8 0.00 0.10 0.10 34 1019.1
20260506185204 15 210 3.2 4.8 0.00 0.10 0.10 33 1019.1
20260506184702 15 357 4.8 4.8 0.00 0.10 0.10 33 1019.2
20260506184159 14 226 0.0 3.2 0.00 0.10 0.10 36 1019.1
20260506183656 14 270 0.0 4.8 0.00 0.10 0.10 32 1019.3
20260506183151 13 43 6.4 11.3 0.00 0.10 0.10 34 1019.2
20260506182649 13 263 1.6 3.2 0.00 0.10 0.10 36 1019.4
20260506182145 13 9 4.8 6.4 0.00 0.10 0.10 34 1019.4
20260506181643 13 222 0.0 3.2 0.00 0.10 0.10 36 1019.5
20260506181140 13 225 1.6 3.2 0.00 0.10 0.10 38 1019.5
20260506180638 12 232 0.0 1.6 0.00 0.10 0.10 40 1019.3
20260506180134 12 327 1.6 3.2 0.00 0.10 0.10 37 1019.6
20260506175631 12 232 0.0 6.4 0.00 0.10 0.10 39 1019.5
20260506175126 12 323 3.2 6.4 0.00 0.10 0.10 37 1019.6
20260506174625 12 222 1.6 4.8 0.00 0.10 0.10 38 1019.5
20260506174121 12 297 1.6 6.4 0.00 0.10 0.10 36 1019.6
20260506173619 13 241 1.6 3.2 0.00 0.10 0.10 38 1019.7
20260506173115 13 297 1.6 1.6 0.00 0.10 0.10 38 1019.8
20260506172613 13 30 1.6 4.8 0.00 0.10 0.10 38 1019.3
20260506172109 12 162 0.0 3.2 0.00 0.10 0.10 38 1019.5
20260506171607 12 211 4.8 4.8 0.00 0.10 0.10 38 1019.4
20260506171104 13 345 1.6 3.2 0.18 0.10 0.10 38 1019.6
20260506170601 13 305 4.8 4.8 0.18 0.10 0.10 35 1019.6